カタログに戻る

STARLINK-5801

運用中通信VLEO
NORAD 56005·PAYLOAD·🇺🇸 United States

打ち上げ Mar 24, 2023 から Cape Canaveral Space Force Station

Loading…

次のパス (今後24時間)

TLE

最新Source: CelesTrak SupGP

元期: Sep 14, 2026, 21:20 UTC

1 56005C 23042V   26257.88937500  .00045211  00000+0  16378-2 0  2575
2 56005  43.0011  75.1394 0001207 270.9727 239.0963 15.27550774    16

AllMySatでSTARLINK-5801をリアルタイム追跡

Download on the App Store